Simultaneous Nadir Overpasses (SNOs) Predictions

Prediction of SNOs between METOP-C and LANDSAT-8 Satellite Orbit:

Table of predicted SNOs for the next 14.0 days since TLE Epoch: 5/30/2020
Index Date (METOP-C) Time (METOP-C) Lat,Lon (METOP-C) SZA (METOP-C ) Date (LANDSAT-8) Time (LANDSAT-8) Lat,Lon (LANDSAT-8) SZA (LANDSAT-8 ) Distance(km) Time Diff (sec)
1 06/01/2020 12:26:37 -81.11,-147.13 118.87 06/01/2020 12:27:33 -81.11,-147.14 118.85 0.36 56
2 06/01/2020 13:17:15 81.13, 20.93 61.23 06/01/2020 13:16:58 81.13, 20.90 61.21 0.52 17
3 06/04/2020 08:00:59 -81.11, -80.83 119.24 06/04/2020 08:01:48 -81.10, -80.78 119.21 1.02 49
4 06/04/2020 08:51:37 81.13, 87.18 60.85 06/04/2020 08:51:13 81.13, 87.25 60.85 1.21 24
5 06/07/2020 03:35:21 -81.11, -14.18 119.50 06/07/2020 03:36:03 -81.12, -14.05 119.47 2.36 42
6 06/07/2020 04:25:59 81.14, 153.80 60.58 06/07/2020 04:25:28 81.14, 153.96 60.59 2.91 31
7 06/09/2020 23:09:43 -81.12, 52.47 119.72 06/09/2020 23:10:19 -81.12, 52.32 119.73 2.71 36
8 06/10/2020 00:00:21 81.14,-139.58 60.36 06/09/2020 23:59:44 81.14,-139.69 60.33 1.93 37
9 06/12/2020 18:44:06 -81.12, 118.73 119.94 06/12/2020 18:44:35 -81.11, 118.68 119.94 1.11 29




NCC Satellite Simultaneous Nadir Overpasses (SNOs) Prediction Service
